sat.trackr.live / text

‹ back to catalog

STARLINK-11421 [DTC]

NORAD 61945 · 2024-209G

PAYLOAD ACTIVE UNKNOWN

§ Identity

Operator
Country
US
Launch date
2024-11-14
Launch site
AFWTR
Launch vehicle
Mass (kg)
RCS (m²)

Purposes: comms

External: N2YO · Heavens-Above · Gunter

§ Orbital elements

Epoch: 2026-05-25T00:24:23.488992Z

Period
91.73 min
Inclination
53.1577°
Eccentricity
0.0001033
Mean motion
15.69748938 rev/d
Perigee alt
358.9 km
Apogee alt
360.3 km
Semi-major
6,737.8 km
B*
1.1249e-3
RAAN
355.1671°
Arg perigee
126.4736°
Mean anomaly
233.6377°
Rev number
8,866

§ Raw data

STARLINK-11421 [DTC]1 61945U 24209G   26145.01693853  .00138203  00000+0  11249-2 0  99902 61945  53.1577 355.1671 0001033 126.4736 233.6377 15.69748938 88668

JSON: /api/v1/satellites/61945 · /tle

For live sub-satellite position, see the globe view (requires WebGL).

§ Visibility from observer

Set your observer location to see the next 7 days of passes ≥ 10°. The values pass through the URL so the page stays shareable.

No JS? Fill the form by hand. The geolocation button needs JavaScript.